カタログに戻る

COSMOS 1057

運用中軍事LEO
NORAD 11134·PAYLOAD·🇷🇺 Russia

打ち上げ Dec 5, 1978 から Plesetsk Cosmodrome

Loading…

次のパス (今後24時間)

TLE

最新Source: Space-Track

元期: Sep 14, 2026, 05:11 UTC

1 11134U 78109G   26257.21628958  .00000005  00000-0  14899-3 0  9997
2 11134  74.0178 172.8119 0022338 335.8784 191.4965 12.42131731166298

AllMySatでCOSMOS 1057をリアルタイム追跡

Download on the App Store